Regional Weather Roundup
Issued by NWS

Home | Current Version | Previous Version | Text Only | Print | Product List | Glossary On
Versions: 1 2 3 4 5 6 7 8 9 10 11 12 13 14 15 16 17 18 19 20 21 22 23 24 25 26 27 28 29 30 31 32 33 34 35 36 37 38 39 40 41 42 43 44 45 46 47 48 49 50
000
ASUS44 KBMX 181010
RWRAL

ALABAMA REGIONAL WEATHER ROUNDUP
NATIONAL WEATHER SERVICE BIRMINGHAM AL
400 AM CST SUN FEB 18 2018

NOTE: "FAIR" INDICATES FEW OR NO CLOUDS BELOW 12,000 FEET
WITH NO SIGNIFICANT WEATHER AND/OR OBSTRUCTIONS TO VISIBILITY.

THE REMARK "TC" DENOTES TEMPERATURE IN DEGREES CELSIUS.

ALZ001>011-014-016>018-020-181100-
NORTH ALABAMA

CITY           SKY/WX    TMP DP  RH WIND       PRES   REMARKS
MUSCLE SHOALS  FAIR      44  36  73 NE8       30.26F
HUNTSVILLE     FAIR      45  39  79 N10       30.24F
DECATUR        FAIR      44  37  76 NE8       30.26S
HALEYVILLE     CLOUDY    44  40  85 NE6       30.25S
GADSDEN        CLOUDY    49  46  90 N10       30.23S
$$

ALZ012-013-022-023-030>036-040>044-181100-
WEST CENTRAL ALABAMA

CITY           SKY/WX    TMP DP  RH WIND       PRES   REMARKS
TUSCALOOSA     CLOUDY    50  48  93 NE8       30.23R
DEMOPOLIS      DRIZZLE   51  48  90 N7        30.21S
$$

ALZ015-024>026-033>036-041>044-181100-
CENTRAL ALABAMA

CITY           SKY/WX    TMP DP  RH WIND       PRES   REMARKS
BIRMINGHAM     CLOUDY    49  46  90 NE10      30.24R
MONTGOMERY     CLOUDY    61  56  83 N8        30.18R
SHELBY CO ARPT CLOUDY    51  49  92 VRB5      30.21R
MAXWELL AFB    CLOUDY    59  55  88 N8        30.16S
GREENVILLE     CLOUDY    61  56  83 N7        30.16R
SELMA          CLOUDY    57  54  88 N8        30.18S
PRATTVILLE     CLOUDY    57  56  99 N5        30.17S
BESSEMER       CLOUDY    49  47  93 N10       30.21S
TALLADEGA      CLOUDY    51  48  91 N5        30.23R
PELL CITY      CLOUDY    50  48  93 N8G14     30.23R
MARION         DRIZZLE   52  52 100 N5        30.20R
SYLACAUGA      CLOUDY    52  52 100 NE6       30.21R
$$

ALZ019-021-028-029-037-038-045>048-181100-
EAST CENTRAL ALABAMA

CITY           SKY/WX    TMP DP  RH WIND       PRES   REMARKS
ANNISTON       CLOUDY    51  47  86 NE7       30.22R
ALEXANDER CITY CLOUDY    54  54 100 N5        30.19R
AUBURN         CLOUDY    58  57  97 N8G17     30.18R
$$

ALZ051>064-181100-
SOUTHWEST ALABAMA

CITY           SKY/WX    TMP DP  RH WIND       PRES   REMARKS
MOBILE         FAIR      63  59  87 NE7       30.16R
BROOKLEY FIELD FAIR      64  62  93 N7        30.16S
EVERGREEN      CLOUDY    63  58  83 N3        30.16S
$$

ALZ049-050-065>069-181100-
SOUTHEAST ALABAMA

CITY           SKY/WX    TMP DP  RH WIND       PRES   REMARKS
DOTHAN         CLOUDY    66  66 100 W3        30.19R
OZARK          FOG       64  64 100 S3        30.15S VSB 3/4
TROY           CLOUDY    63  60  90 N6        30.17R
EUFAULA        CLOUDY    64  62  93 CALM      30.15R
$$



USA.gov is the U.S. government's official web portal to all federal, state and local government web resources and services.